• MPC Preparation (Info)

  • MPEC 2020-M37 : 2020 MO

    The following Minor Planet Electronic Circular may be linked-to from your own Web pages, but must not otherwise be redistributed electronically.

    A form allowing access to any MPEC is at the bottom of this page.


    Read MPEC 2020-M36 Read MPEC 2020-M38


    M.P.E.C. 2020-M37                                 Issued 2020 June 19, 23:16 UT
    
         The Minor Planet Electronic Circulars contain information on unusual
             minor planets and routine data on comets.  They are published
        on behalf of Division F of the International Astronomical Union by the
              Minor Planet Center, Smithsonian Astrophysical Observatory,
                              Cambridge, MA 02138, U.S.A.
    
                 Prepared using the Tamkin Foundation Computer Network
    
                                  MPC@CFA.HARVARD.EDU
                URL https://www.minorplanetcenter.net/    ISSN 1523-6714
    
                                     2020 MO                                 
    
    
    Observations:
         K20M00O  C2020 05 26.37354015 55 30.531-01 16 00.52         23.1 GVEM037F51
         K20M00O  C2020 05 26.38386815 55 30.265-01 15 59.92         22.4 GVEM037F51
         K20M00O  C2020 05 26.39420515 55 29.987-01 15 59.91         23.5 GVEM037F51
         K20M00O  C2020 05 26.40456115 55 29.707-01 15 59.50         23.5 GVEM037F51
         K20M00O  C2020 06 11.32271215 54 14.327-03 25 57.93         22.5 GVEM037F52
         K20M00O  C2020 06 11.32336115 54 14.314-03 25 58.11         23.1 GVEM037F52
         K20M00O  C2020 06 11.33325515 54 14.172-03 26 10.93         21.6 GVEM037F52
         K20M00O  C2020 06 11.33390515 54 14.169-03 26 11.55         21.3 GVEM037F52
         K20M00O  C2020 06 11.34381015 54 14.001-03 26 24.55         21.9 GVEM037F52
         K20M00O  C2020 06 11.34445915 54 13.988-03 26 25.61         21.6 GVEM037F52
         K20M00O  C2020 06 11.35444715 54 13.849-03 26 38.49         21.9 GVEM037F52
         K20M00O  C2020 06 11.35509715 54 13.848-03 26 39.29         21.9 GVEM037F52
         K20M00O  C2020 06 14.36252715 55 05.597-04 44 43.34         21.0 GVEM037F52
         K20M00O* C2020 06 18.31413515 57 40.042-07 24 56.62         20.73wUEM037F52
         K20M00O  C2020 06 18.32766315 57 40.266-07 25 39.23         20.67wUEM037F52
         K20M00O  C2020 06 18.34123815 57 40.500-07 26 21.97         20.75wUEM037F52
         K20M00O  C2020 06 18.35451915 57 40.731-07 27 03.67         20.81wUEM037F52
         K20M00O bC2020 06 18.85527415 58 11.15 -07 54 44.7          20.9 GVEM037L01
         K20M00O bC2020 06 18.85989315 58 11.36 -07 55 01.1          21.0 GVEM037L01
         K20M00O bC2020 06 18.86350215 58 11.47 -07 55 12.9          21.0 GVEM037L01
         K20M00O KC2020 06 18.97839115 58 16.41 -08 01 42.6          20.5 GUEM037I93
         K20M00O KC2020 06 18.98348315 58 16.57 -08 01 59.0          20.3 GUEM037I93
         K20M00O KC2020 06 18.99196815 58 16.83 -08 02 28.4          20.0 GUEM037I93
         K20M00O KC2020 06 19.11672815 58 28.75 -08 09 35.3          20.7 VuEM037H21
         K20M00O KC2020 06 19.12282315 58 28.96 -08 09 56.6          20.6 VuEM037H21
         K20M00O KC2020 06 19.12891415 58 29.14 -08 10 18.0          20.5 VuEM037H21
         K20M00O KC2020 06 19.85148415 59 20.06 -08 54 47.0          20.4 GVEM037104
         K20M00O KC2020 06 19.86056715 59 21.34 -08 55 20.5          18.9 GVEM037B37
         K20M00O KC2020 06 19.86673115 59 20.72 -08 55 47.1          20.8 GVEM037104
         K20M00O KC2020 06 19.87232115 59 21.80 -08 56 05.9          19.7 GVEM037B37
         K20M00O KC2020 06 19.88445615 59 22.23 -08 56 52.9          19.4 GVEM037B37
         K20M00O KC2020 06 19.88645915 59 21.76 -08 57 06.6          19.5 GVEM037203
         K20M00O KC2020 06 19.89369315 59 21.90 -08 57 31.9                VEM037104
         K20M00O KC2020 06 19.90792115 59 22.71 -08 58 30.3          19.5 GVEM037203
         K20M00O KC2020 06 19.92982 15 59 26.28 -08 59 32.6          20.2 GVEM037J04
         K20M00O KC2020 06 19.93166 15 59 26.33 -08 59 40.2          20.2 GVEM037J04
         K20M00O KC2020 06 19.93350 15 59 26.42 -08 59 47.4          20.0 GVEM037J04
    
    Observer details:
    104 San Marcello Pistoiese.  Observers P. Bacci, M. Maestripieri, M. D.
        Grazia.  Measurers P. Bacci, L. Tesi, G. Fagioli.  0.60-m reflector + CCD.
    203 GiaGa Observatory.  Observers S. Foglia, G. Galli.  Measurer G. Galli.
        0.36-m f/5.76 Schmidt-Cassegrain + CCD.
    B37 Obs. de L Ametlla del Valles, Barcelona.  Observer A. Garrigos.  0.51-m
        f/4.0 reflector + CCD.
    F51 Pan-STARRS 1, Haleakala.  Observers J. Bulger, K. Chambers, T. Lowe, A.
        Schultz, M. Willman.  Measurers S. Chastel, M. Huber, Y. Ramanjooloo, R.
        Wainscoat, R. Weryk.  1.8-m Ritchey-Chretien + CCD.
    F52 Pan-STARRS 2, Haleakala.  Observers J. Bulger, K. Chambers, T. Dukes, T.
        Lowe, A. Schultz, M. Willman.  Measurers S. Chastel, M. Huber, Y.
        Ramanjooloo, R. Wainscoat, R. Weryk, K. Chambers, T. de Boer, L. Denneau,
        J. Fairlamb, H. Flewelling, C.-C. Lin, E. Magnier.  1.8-m Ritchey-Chretien
        + CCD.
    H21 Astronomical Research Observatory, Westfield.  Observer R. Holmes.
        Measurers S. Foglia, L. Buzzi, T. Linder, R. Holmes.  0.81-m f/4.0
        astrograph + CCD.
    I93 St Pardon de Conques.  Observer F. Losse.  0.40-m f/3.7 reflector + CCD.
    J04 ESA Optical Ground Station, Tenerife.  Observer P. Ruiz.  Measurers A.
        Knofel, D. Koschny, M. Busch, M. Micheli, E. Schwab.  1.0-m f/4.4
        reflector + CCD.
    L01 Visnjan Observatory, Tican.  Observer K. Korlevic.  1.0-m f/2.9 reflector
        + CCD.
    
    Orbital elements:
    2020 MO                                                  Earth MOID = 0.0240 AU
    Epoch 2020 May 31.0 TT = JDT 2459000.5                  Veres
    M 346.70871              (2000.0)            P               Q
    n   0.26029232     Peri.  209.34346     +0.54207896     +0.83188884
    a   2.4293783      Node    93.71922     -0.74592082     +0.54144592
    e   0.5853608      Incl.    6.83681     -0.38697872     +0.12164402
    P   3.79           H   24.9           G   0.15           U   6
    Residuals in seconds of arc
    200526 F51  0.0   0.4-    200618 F52  0.2+  0.1-    200619 104  0.6-  0.9+
    200526 F51  0.1+  0.1+    200618 F52  0.0   0.2-    200619 B37  0.1+  0.5-
    200526 F51  0.0   0.0     200618 F52  0.1-  0.2-    200619 104  0.5-  0.3+
    200526 F51  0.1-  0.3+    200618 F52  0.0   0.2-    200619 B37  0.5-  0.1+
    200611 F52  0.1-  0.4-    200618 L01  0.9-  0.5+    200619 B37 (1.6-  0.6+)
    200611 F52  0.1-  0.2+    200618 L01  0.0   0.3-    200619 203  0.1+  0.6-
    200611 F52  0.0   0.2+    200618 L01  0.1-  0.1+    200619 104  0.0   0.7+
    200611 F52  0.1+  0.4+    200618 I93  0.4+  0.3-    200619 203  0.3+  0.4-
    200611 F52  0.2-  0.1+    200618 I93  0.1+  0.6+    200619 J04  0.1+  0.1-
    200611 F52  0.2-  0.1-    200618 I93  0.4-  0.1+    200619 J04  0.1-  0.4-
    200611 F52  0.1+  0.1-    200619 H21  0.6+  0.0     200619 J04  0.2+  0.4-
    200611 F52  0.2+  0.1-    200619 H21  0.7+  0.1+
    200614 F52  0.1+  0.1-    200619 H21  0.5+  0.2+
    
    Ephemeris:
    2020 MO                  a,e,i = 2.43, 0.59, 7                   q = 1.0073
    Date    TT    R. A. (2000) Decl.     Delta      r    Elong.  Phase     V
    2020 05 20    15 56 36.0 -01 28 03   0.2747  1.2753   161.4    14.7    23.4
    ...
    2020 06 04    15 54 05.6 -01 44 57   0.1726  1.1737   155.4    21.1    22.5
    ...
    2020 06 12    15 54 21.1 -03 40 32   0.1244  1.1261   151.3    25.7    21.8
    ...
    2020 06 18    15 57 21.2 -07 08 08   0.09026 1.0945   149.1    28.5    21.1
    2020 06 19    15 58 19.4 -08 01 32   0.08474 1.0896   149.0    28.7    21.0
    2020 06 20    15 59 30.1 -09 02 59   0.07928 1.0849   148.9    29.0    20.8
    ...
    2020 06 26    16 15 00.6 -20 14 05   0.04808 1.0588   150.9    27.9    19.7
    ...
    2020 07 04    21 22 06.7 -70 09 29   0.02405 1.0316   127.9    51.0    18.8
    ...
    2020 07 19    03 08 59.4 -22 13 41   0.08751 1.0075    81.8    93.3    22.9
    
    M. P. C. Staff               (C) Copyright 2020 MPC           M.P.E.C. 2020-M37
    


    Read MPEC 2020-M36 Read MPEC 2020-M38


    MPEC number:

    Enter an MPEC number in one of the following forms:

    • 1997-B01 (the full form)
    • J97B01 (the packed version of the full form)
    • B01 (the abbreviated form)